Regional Weather Roundup
Issued by NWS

Home | Current Version | Previous Version | Graphics & Text | Print | Product List | Glossary Off
Versions: 1 2 3 4 5 6 7 8 9 10 11 12 13 14 15 16 17 18 19 20 21 22 23 24 25 26 27 28 29 30 31 32 33 34 35 36 37 38 39 40 41 42 43 44 45 46 47 48 49 50

000
ASUS43 KDMX 290306
RWRIA

WEATHER ROUNDUP FOR IOWA
NATIONAL WEATHER SERVICE DES MOINES IA
1000 PM CDT FRI APR 28 2017

NOTE: "FAIR" INDICATES FEW OR NO CLOUDS BELOW 12,000 FEET WITH NO
SIGNIFICANT WEATHER AND/OR OBSTRUCTIONS TO VISIBILITY.

* - THESE STATIONS ARE NOT NWS STATIONS...THUS NOT UNDER NWS
QUALITY CONTROL.  THEY ALSO DO NOT REPORT WEATHER SUCH
AS PRECIPITATION OR FOG.

IAZ001>003-012>014-020>022-031>034-043>046-290400-
   NORTHWEST IOWA

CITY           SKY/WX    TMP DP  RH WIND       PRES   REMARKS
CARROLL *      CLOUDY    43  39  87 NE8       30.05R
CHEROKEE *     CLOUDY    41  33  74 N6        30.05R
DENISON *      CLOUDY    43  37  81 NE12      30.05R
LE MARS *      CLOUDY    45  34  65 NE6       30.06R
ORANGE CITY *  CLOUDY    45  34  65 NE5       30.07R
SHELDON *      CLOUDY    39  34  81 NE5       30.07R
SIOUX CITY     CLOUDY    45  35  68 NE8       30.05R
SPENCER        MOCLDY    38  32  79 NE6       30.05R WCI  33
$$

IAZ055>058-069>071-079>083-090>094-290400-
   SOUTHWEST IOWA

CITY           SKY/WX    TMP DP  RH WIND       PRES   REMARKS
ATLANTIC *     CLOUDY    43  37  81 NE10G17   30.02R
AUDUBON *      CLOUDY    41  37  87 NE7       30.03R
CLARINDA *     CLOUDY    45  43  93 NE12      30.02R
COUNCIL BLFS * CLOUDY    41  41 100 NE9       30.02R
CRESTON *      CLOUDY    43  41  93 NE14      30.01R
HARLAN  *      CLOUDY    43  41  93 NE10      30.06R
LAMONI         CLOUDY    43  42  97 NE12G22   29.98R
RED OAK *      CLOUDY    43  41  93 NE9       30.01R
SHENANDOAH *   CLOUDY    43  41  93 NE13      30.00R
$$

IAZ047>049-059>061-072>074-084-290400-
   CENTRAL IOWA

CITY           SKY/WX    TMP DP  RH WIND       PRES   REMARKS
AMES           CLOUDY    43  39  86 NE9       30.02R
ANKENY *       CLOUDY    45  39  81 NE9       30.03R
BOONE *        CLOUDY    43  39  87 NE10      30.02R
CHARITON *     CLOUDY    43  41  93 NE12      29.99R
DES MOINES     CLOUDY    45  38  76 NE13      30.01R
GRINNELL*      CLOUDY    42  40  93 NE14G20   30.00R
KNOXVILLE *    CLOUDY    43  41  93 NE12      29.99R
MARSHALLTOWN   CLOUDY    43  39  86 NE14      30.01R
NEWTON *       CLOUDY    43  39  87 NE13G20   30.00R
PELLA *        CLOUDY    43  41  92 N7        30.01R
PERRY *        CLOUDY    43  39  85 NE7       30.03R
$$

IAZ004>006-015-016-023>025-035-036-290400-
   NORTH CENTRAL IOWA

CITY           SKY/WX    TMP DP  RH WIND       PRES   REMARKS
ALGONA *       CLOUDY    41  34  75 NE9       30.03R
CLARION *      CLOUDY    41  41 100 NE12      30.02R
ESTHERVILLE    CLOUDY    34  33  96 N6        30.05R WCI  29
FORT DODGE *   CLOUDY    43  36  75 NE10      30.03R
MASON CITY     PTCLDY    41  34  76 N12       30.04R
FOREST CITY *    N/A     39  32  75 N7        30.04S WCI  34
WEBSTER CITY * CLOUDY    43  37  81 NE10      30.01R
IOWA FALLS *   MOCLDY    42  38  84 NE8       30.03R
$$

IAZ007>011-017>019-026>030-037>042-050>054-066-290400-
   NORTHEAST IOWA

CITY           SKY/WX    TMP DP  RH WIND       PRES   REMARKS
CEDAR RAPIDS   CLOUDY    43  43 100 N10       29.99R
CHARLES CITY * CLOUDY    41  39  93 NE9       30.02S
CLINTON *      CLOUDY    45  44  97 NE16      29.98R FOG
DECORAH *      CLOUDY    43  37  81 N7        30.03R
DUBUQUE        CLOUDY    43  41  93 NE14      30.01R
MONTICELLO *   DRIZZLE   45  41  87 NE9       30.00R
OELWEIN *      CLOUDY    43  41  93 NE12      30.02R
WATERLOO       CLOUDY    43  38  82 NE9       30.02R
$$

IAZ064-065-067-068-078-290400-
   EAST CENTRAL IOWA

CITY           SKY/WX    TMP DP  RH WIND       PRES   REMARKS
DAVENPORT      CLOUDY    45  44  97 NE18      29.97R
IOWA CITY      CLOUDY    46  43  89 N9        30.00R
MT. PLEASANT * CLOUDY    45  45 100 N13       29.97R
MUSCATINE *    CLOUDY    46  45  93 NE12      29.98R
QUAD CITIES    CLOUDY    49  46  90 N6        29.96R
$$

IAZ062-063-075>077-085>089-095>099-290400-
   SOUTHEAST IOWA

CITY           SKY/WX    TMP DP  RH WIND       PRES   REMARKS
BURLINGTON     CLOUDY    51  50  96 N9        29.95R FOG
FAIRFIELD *    CLOUDY    45  45 100 NE14      29.96R FOG
FORT MADISON * CLOUDY    50  48  93 N9        29.96R FOG
KEOKUK *       CLOUDY    52  50  93 N8        29.93R FOG
OSKALOOSA *    CLOUDY    42  41  96 N16       29.99R
CENTERVILLE *  CLOUDY    43  43 100 N7        29.98R
OTTUMWA        CLOUDY    45  44  97 N10       29.98R
WASHINGTON *   CLOUDY    45  45 100 NE15      29.98R
$$

ABBREVIATIONS USED IN REMARKS
   TC - TEMPERATURES IN CELSIUS
  WCI - WIND CHILL INDEX
   HX - HEAT INDEX
  VSB - VISIBILITY
$$





USA.gov is the U.S. government's official web portal to all federal, state and local government web resources and services.